Overview Statistics Trail Chart Weather Telemetry Raw packets
 

This is the latest recevied weather packets stored in our database for station/object OK1TBM-13. If no packets are shown the sender has not sent any weather packets the latest 10 day(s).

<< 45 46 47 48 49 50 51 >>
Time Temp. Humidity Pressure Rain* Wind** Luminosity Snow
1788244800 18.33° C 76% 1017.6 hPa 0 mm - 262 W/m² -
1788244500 18.33° C 76% 1017.6 hPa 0 mm - 240 W/m² -
1788244222 17.78° C 76% 1017.6 hPa 0 mm - 209 W/m² -
1788243901 17.78° C 77% 1017.3 hPa 0 mm - 194 W/m² -
1788243601 18.33° C 77% 1017.3 hPa 0 mm - 178 W/m² -
1788243301 17.78° C 77% 1017.3 hPa 0 mm - 162 W/m² -
1788243002 17.78° C 78% 1017.3 hPa 0 mm - 150 W/m² -
1788242701 17.22° C 78% 1017.3 hPa 0 mm - 136 W/m² -
1788242402 17.22° C 79% 1017.3 hPa 0 mm - 123 W/m² -
1788242102 17.22° C 79% 1017.3 hPa 0 mm - 113 W/m² -
1788241801 16.67° C 80% 1017.3 hPa 0 mm - 104 W/m² -
1788241501 16.67° C 82% 1017.3 hPa 0 mm - 89 W/m² -
1788241201 15.56° C 84% 1017.3 hPa 0 mm - 78 W/m² -
1788240901 15.56° C 86% 1017.3 hPa 0 mm - 40 W/m² -
1788240601 15° C 86% 1017.3 hPa 0 mm - 38 W/m² -
1788240301 15° C 86% 1017.3 hPa 0 mm - 37 W/m² -
1788240001 15° C 87% 1017.3 hPa 0 mm - 36 W/m² -
1788239702 15° C 86% 1017.3 hPa 0 mm - 34 W/m² -
1788239401 15° C 87% 1017.3 hPa 0 mm - 32 W/m² -
1788239101 14.44° C 87% 1017.3 hPa 0 mm - 30 W/m² -
1788238501 14.44° C 88% 1017.3 hPa 0 mm - 25 W/m² -
1788238202 14.44° C 88% 1017.3 hPa 0 mm - 23 W/m² -
1788237602 14.44° C 87% 1017.3 hPa 0 mm - 18 W/m² -
1788237301 14.44° C 87% 1016.9 hPa 0 mm - 15 W/m² -
1788237002 14.44° C 87% 1016.9 hPa 0 mm - 13 W/m² -

* Rain latest hour (hover to see other rain measurements)
** Current wind speed in m/s (hover to see current wind gust speed)